TimeEST,TemperatureF,Dew PointF,Humidity,Sea Level PressureIn,VisibilityMPH,Wind Direction,Wind SpeedMPH,Gust SpeedMPH,PrecipitationIn,Events,Conditions,WindDirDegrees,DateUTC
12:15 AM,26.6,17.6,69,30.07,10.0,Calm,Calm,-,N/A,,Scattered Clouds,0,2014-02-16 05:15:00
12:35 AM,26.6,17.6,69,30.07,10.0,Calm,Calm,-,N/A,,Mostly Cloudy,0,2014-02-16 05:35:00
12:55 AM,26.6,17.6,69,30.08,10.0,Calm,Calm,-,N/A,,Mostly Cloudy,0,2014-02-16 05:55:00
1:15 AM,26.6,19.4,74,30.07,10.0,Calm,Calm,-,N/A,,Overcast,0,2014-02-16 06:15:00
1:35 AM,26.6,19.4,74,30.07,10.0,Calm,Calm,-,N/A,,Overcast,0,2014-02-16 06:35:00
1:55 AM,28.4,17.6,64,30.06,10.0,WNW,3.5,-,N/A,,Overcast,300,2014-02-16 06:55:00
2:15 AM,30.2,15.8,55,30.06,10.0,Calm,Calm,-,N/A,,Scattered Clouds,0,2014-02-16 07:15:00
2:35 AM,28.4,19.4,69,30.06,10.0,Calm,Calm,-,N/A,,Clear,0,2014-02-16 07:35:00
3:15 AM,28.4,17.6,64,30.06,10.0,Calm,Calm,-,N/A,,Scattered Clouds,0,2014-02-16 08:15:00
3:35 AM,28.4,19.4,69,30.06,10.0,Calm,Calm,-,N/A,,Overcast,0,2014-02-16 08:35:00
3:55 AM,28.4,17.6,64,30.05,10.0,Calm,Calm,-,N/A,,Scattered Clouds,0,2014-02-16 08:55:00
4:15 AM,26.6,17.6,69,30.05,10.0,Calm,Calm,-,N/A,,Clear,0,2014-02-16 09:15:00
4:35 AM,24.8,19.4,80,30.06,10.0,Calm,Calm,-,N/A,,Scattered Clouds,0,2014-02-16 09:35:00
4:55 AM,24.8,17.6,74,30.06,10.0,Calm,Calm,-,N/A,,Mostly Cloudy,0,2014-02-16 09:55:00
5:15 AM,26.6,17.6,69,30.05,10.0,Calm,Calm,-,N/A,,Mostly Cloudy,0,2014-02-16 10:15:00
5:35 AM,24.8,17.6,74,30.05,10.0,Calm,Calm,-,N/A,,Scattered Clouds,0,2014-02-16 10:35:00
5:55 AM,24.8,17.6,74,30.05,10.0,Calm,Calm,-,N/A,,Clear,0,2014-02-16 10:55:00
6:15 AM,23.0,17.6,80,30.05,10.0,Calm,Calm,-,N/A,,Clear,0,2014-02-16 11:15:00
6:35 AM,23.0,17.6,80,30.06,10.0,Calm,Calm,-,N/A,,Scattered Clouds,0,2014-02-16 11:35:00
6:55 AM,23.0,17.6,80,30.06,10.0,NNE,3.5,-,N/A,,Scattered Clouds,30,2014-02-16 11:55:00
7:15 AM,21.2,17.6,86,30.07,10.0,NNE,3.5,-,N/A,,Clear,30,2014-02-16 12:15:00
7:35 AM,23.0,17.6,80,30.09,10.0,North,4.6,-,N/A,,Clear,10,2014-02-16 12:35:00
7:55 AM,23.0,17.6,80,30.09,10.0,North,4.6,-,N/A,,Clear,360,2014-02-16 12:55:00
8:15 AM,26.6,17.6,69,30.09,10.0,Calm,Calm,-,N/A,,Clear,0,2014-02-16 13:15:00
8:35 AM,28.4,17.6,64,30.10,10.0,Calm,Calm,-,N/A,,Clear,0,2014-02-16 13:35:00
8:55 AM,30.2,17.6,60,30.10,10.0,Calm,Calm,-,N/A,,Clear,0,2014-02-16 13:55:00
9:15 AM,30.2,17.6,60,30.10,10.0,ENE,4.6,-,N/A,,Clear,60,2014-02-16 14:15:00
9:35 AM,32.0,19.4,60,30.10,10.0,NE,4.6,-,N/A,,Clear,50,2014-02-16 14:35:00
9:55 AM,32.0,17.6,55,30.10,10.0,NE,5.8,-,N/A,,Clear,40,2014-02-16 14:55:00
10:15 AM,32.0,19.4,60,30.10,10.0,NE,3.5,-,N/A,,Clear,50,2014-02-16 15:15:00
10:35 AM,33.8,19.4,56,30.10,10.0,NNE,4.6,-,N/A,,Clear,30,2014-02-16 15:35:00
10:55 AM,35.6,19.4,52,30.10,10.0,NE,4.6,-,N/A,,Clear,40,2014-02-16 15:55:00
11:15 AM,35.6,19.4,52,30.10,10.0,Calm,Calm,-,N/A,,Clear,0,2014-02-16 16:15:00
11:35 AM,37.4,19.4,48,30.09,10.0,East,3.5,-,N/A,,Clear,80,2014-02-16 16:35:00
11:55 AM,39.2,19.4,45,30.09,10.0,Calm,Calm,-,N/A,,Clear,0,2014-02-16 16:55:00
12:15 PM,41.0,21.2,45,30.08,10.0,Calm,Calm,-,N/A,,Clear,0,2014-02-16 17:15:00
12:35 PM,41.0,21.2,45,30.08,10.0,Calm,Calm,-,N/A,,Clear,0,2014-02-16 17:35:00
12:55 PM,42.8,21.2,42,30.07,10.0,Calm,Calm,-,N/A,,Clear,0,2014-02-16 17:55:00
1:15 PM,44.6,23.0,43,30.06,10.0,South,3.5,-,N/A,,Scattered Clouds,180,2014-02-16 18:15:00
1:35 PM,46.4,26.6,46,30.05,10.0,SW,3.5,-,N/A,,Scattered Clouds,220,2014-02-16 18:35:00
1:55 PM,46.4,26.6,46,30.05,10.0,South,4.6,-,N/A,,Scattered Clouds,190,2014-02-16 18:55:00
2:15 PM,46.4,26.6,46,30.04,10.0,SSE,3.5,-,N/A,,Scattered Clouds,150,2014-02-16 19:15:00
2:35 PM,48.2,26.6,43,30.03,10.0,West,4.6,-,N/A,,Clear,260,2014-02-16 19:35:00
2:55 PM,50.0,28.4,43,30.02,10.0,West,11.5,20.7,N/A,,Clear,270,2014-02-16 19:55:00
3:15 PM,50.0,28.4,43,30.03,10.0,West,16.1,25.3,N/A,,Clear,260,2014-02-16 20:15:00
3:33 PM,51.8,28.4,41,30.03,10.0,WSW,19.6,28.8,N/A,,Clear,240,2014-02-16 20:33:00
3:55 PM,50.0,28.4,43,30.04,10.0,West,19.6,26.5,N/A,,Clear,260,2014-02-16 20:55:00
4:15 PM,50.0,28.4,43,30.05,10.0,West,17.3,24.2,N/A,,Clear,260,2014-02-16 21:15:00
4:35 PM,50.0,28.4,43,30.05,10.0,WSW,11.5,19.6,N/A,,Clear,250,2014-02-16 21:35:00
4:55 PM,48.2,28.4,46,30.06,10.0,West,16.1,21.9,N/A,,Scattered Clouds,260,2014-02-16 21:55:00
5:15 PM,46.4,28.4,50,30.08,10.0,West,15.0,20.7,N/A,,Scattered Clouds,270,2014-02-16 22:15:00
5:35 PM,46.4,28.4,50,30.08,10.0,West,13.8,19.6,N/A,,Clear,270,2014-02-16 22:35:00
5:55 PM,44.6,28.4,53,30.10,10.0,West,11.5,19.6,N/A,,Clear,260,2014-02-16 22:55:00
6:15 PM,44.6,28.4,53,30.10,10.0,West,5.8,-,N/A,,Clear,260,2014-02-16 23:15:00
6:35 PM,42.8,28.4,57,30.11,10.0,West,5.8,-,N/A,,Clear,270,2014-02-16 23:35:00
6:55 PM,42.8,28.4,57,30.11,10.0,Calm,Calm,-,N/A,,Clear,0,2014-02-16 23:55:00
7:15 PM,42.8,28.4,57,30.12,10.0,Calm,Calm,-,N/A,,Clear,0,2014-02-17 00:15:00
7:35 PM,41.0,28.4,61,30.13,10.0,Calm,Calm,-,N/A,,Clear,0,2014-02-17 00:35:00
7:55 PM,37.4,28.4,70,30.14,10.0,Calm,Calm,-,N/A,,Clear,0,2014-02-17 00:55:00
8:15 PM,37.4,28.4,70,30.14,10.0,Calm,Calm,-,N/A,,Clear,0,2014-02-17 01:15:00
8:35 PM,37.4,28.4,70,30.14,10.0,Calm,Calm,-,N/A,,Clear,0,2014-02-17 01:35:00
8:55 PM,37.4,28.4,70,30.15,10.0,Calm,Calm,-,N/A,,Clear,0,2014-02-17 01:55:00
9:15 PM,35.6,28.4,75,30.15,10.0,Calm,Calm,-,N/A,,Clear,0,2014-02-17 02:15:00
9:35 PM,33.8,28.4,81,30.16,10.0,Calm,Calm,-,N/A,,Clear,0,2014-02-17 02:35:00
9:55 PM,33.8,28.4,81,30.16,10.0,Calm,Calm,-,N/A,,Clear,0,2014-02-17 02:55:00
10:15 PM,32.0,26.6,80,30.16,10.0,Calm,Calm,-,N/A,,Clear,0,2014-02-17 03:15:00
10:35 PM,32.0,28.4,87,30.17,10.0,Calm,Calm,-,N/A,,Clear,0,2014-02-17 03:35:00
10:55 PM,32.0,28.4,87,30.17,10.0,NNW,3.5,-,N/A,,Clear,340,2014-02-17 03:55:00
11:15 PM,35.6,28.4,75,30.18,10.0,Calm,Calm,-,N/A,,Clear,0,2014-02-17 04:15:00
11:35 PM,37.4,28.4,70,30.18,10.0,NNW,3.5,-,N/A,,Clear,330,2014-02-17 04:35:00
11:55 PM,37.4,28.4,70,30.18,10.0,North,3.5,-,N/A,,Clear,350,2014-02-17 04:55:00